Date,TemperatureHighF,TemperatureAvgF,TemperatureLowF,DewpointHighF,DewpointAvgF,DewpointLowF,HumidityHigh,HumidityAvg,HumidityLow,PressureMaxIn,PressureMinIn,WindSpeedMaxMPH,WindSpeedAvgMPH,GustSpeedMaxMPH,PrecipitationSumIn
2012-12-1,58.9,46.7,32.7,52.0,41.9,31.0,98,84,68,30.20,30.00,13,5,18,0.00
2012-12-2,59.1,56.0,50.3,56.0,52.0,47.0,98,87,68,30.06,29.92,8,2,18,0.09
2012-12-3,63.4,58.8,53.0,61.0,57.3,53.0,99,95,82,30.07,29.90,12,4,19,0.02
2012-12-4,62.2,50.6,39.5,58.0,46.4,35.0,96,85,75,30.16,29.90,16,3,21,0.24
2012-12-5,40.4,33.5,27.8,36.0,27.6,24.0,88,79,63,30.41,30.18,13,5,18,0.00
2012-12-6,40.4,33.3,26.2,37.0,29.7,23.0,91,86,80,30.30,29.96,10,5,12,0.00
2012-12-7,45.8,42.0,37.3,44.0,40.7,35.0,98,94,90,29.97,29.83,7,1,8,0.10
2012-12-8,44.1,39.9,33.8,44.0,39.0,32.0,99,97,93,30.12,29.79,11,3,14,0.07
2012-12-9,44.7,38.1,33.9,45.0,37.1,32.0,99,96,92,30.12,29.67,18,8,25,0.15
2012-12-10,43.8,34.8,32.0,44.0,33.4,31.0,99,94,90,29.91,29.68,9,2,14,0.01
2012-12-11,34.0,30.4,26.6,32.0,26.7,24.0,97,86,69,30.20,29.89,6,2,13,0.03
2012-12-12,42.2,31.9,25.6,30.0,26.0,23.0,90,80,57,30.38,30.20,6,2,11,0.00
2012-12-13,44.7,33.9,25.3,32.0,27.2,23.0,90,77,55,30.38,30.18,10,3,13,0.00
2012-12-14,48.4,37.4,29.8,34.0,29.9,25.0,86,75,57,30.26,30.13,6,1,8,0.00
2012-12-15,49.9,41.9,35.5,49.0,38.3,32.0,97,87,78,30.13,29.66,18,6,25,0.15
2012-12-16,51.7,47.8,40.2,51.0,46.0,38.0,98,93,85,29.70,29.58,7,2,11,0.22
2012-12-17,40.3,38.8,37.3,38.0,36.1,35.0,94,90,85,29.73,29.62,8,2,10,0.01
2012-12-18,38.4,36.5,30.6,36.0,34.2,29.0,97,91,84,29.82,29.67,11,4,17,0.01
2012-12-19,43.3,39.6,35.4,39.0,36.2,34.0,95,88,75,30.07,29.71,12,3,18,0.00
2012-12-20,50.7,40.1,33.0,49.0,38.3,32.0,97,93,80,29.95,29.11,24,12,32,1.30
2012-12-21,35.0,33.5,32.3,34.0,30.9,28.0,97,90,82,30.03,29.18,33,16,36,0.13
2012-12-22,32.3,28.4,24.0,28.0,24.4,21.0,90,85,76,30.18,30.03,20,4,27,0.00
2012-12-23,35.9,27.0,18.9,30.0,23.8,17.0,95,87,75,30.04,29.93,7,2,11,0.00
2012-12-24,31.8,29.2,25.4,31.0,27.1,23.0,97,92,88,30.04,29.81,12,5,16,0.00
2012-12-25,34.9,29.5,22.9,28.0,25.5,21.0,93,85,73,30.28,30.04,9,4,11,0.01
2012-12-26,30.7,28.9,25.7,28.0,25.6,23.0,96,88,81,30.20,29.82,17,10,25,0.00
2012-12-27,31.2,27.0,23.3,27.0,23.6,20.0,91,87,82,30.18,29.98,16,5,17,0.00
2012-12-28,29.6,27.6,23.2,28.0,25.6,22.0,96,92,88,30.18,29.91,9,3,11,0.01
2012-12-29,31.5,28.1,26.8,29.0,26.4,24.0,95,93,89,30.16,29.84,7,3,13,0.00
2012-12-30,26.9,23.4,19.3,24.0,19.4,16.0,92,84,73,30.40,30.17,9,2,14,0.01
2012-12-31,35.5,30.3,24.7,31.0,26.4,21.0,95,86,72,30.24,30.02,8,3,15,0.00